When you browse on this site, cookies collect data to enhance your experience and personalize the content and advertising you see.
Visit our Privacy Policy to learn more. By continuing to use the site, you agree to this use of cookies and data.
  • In Germany
  • List of Countries
  • For 7 days
  • Water Temperature
  • Satellite Maps
  • Weather Map
  • Weather Widgets
  • user-avatar
    Login

    Hourly Weather Truto

    Today, 15 December, Saturday

    Time Temperature Precipitation Wind Pressure Humidity
    00:00 +4°C° 0 mm 13 mps 756 mmHg 91%
    01:00 +4°C° 2.4 mm 14 mps 755 mmHg 92%
    02:00 +4°C° 2.4 mm 14 mps 754 mmHg 93%
    03:00 +5°C° 2.4 mm 14 mps 753 mmHg 94%
    04:00 +5°C° 1.4 mm 13 mps 753 mmHg 94%
    05:00 +7°C° 1.4 mm 12 mps 752 mmHg 94%
    06:00 +5°C° 0 mm 12 mps 752 mmHg 94%
    07:00 +7°C° 2 mm 11 mps 751 mmHg 95%
    08:00 +8°C° 2 mm 11 mps 750 mmHg 96%
    09:00 +8°C° 2 mm 10 mps 750 mmHg 97%
    10:00 +9°C° 1.7 mm 11 mps 749 mmHg 97%
    11:00 +11°C° 1.7 mm 11 mps 748 mmHg 97%
    12:00 +12°C° 1.7 mm 12 mps 747 mmHg 97%
    13:00 +12°C° 1 mm 13 mps 746 mmHg 95%
    14:00 +12°C° 1 mm 14 mps 745 mmHg 93%
    15:00 +12°C° 1 mm 14 mps 744 mmHg 91%
    16:00 +10°C° 0.1 mm 15 mps 745 mmHg 86%
    17:00 +9°C° 0.1 mm 15 mps 746 mmHg 82%
    18:00 +7°C° 0.1 mm 16 mps 747 mmHg 77%
    19:00 +8°C° 0.1 mm 14 mps 748 mmHg 77%
    20:00 +7°C° 0.1 mm 13 mps 749 mmHg 76%
    21:00 +7°C° 0.1 mm 11 mps 750 mmHg 76%
    22:00 +6°C° 0.2 mm 11 mps 750 mmHg 78%
    23:00 +6°C° 0.2 mm 10 mps 751 mmHg 81%

    Tomorrow, 16 December, Sunday

    Time Temperature Precipitation Wind Pressure Humidity
    00:00 +6°C° 0.2 mm 10 mps 751 mmHg 84%
    01:00 +6°C° 0.2 mm 9 mps 751 mmHg 84%
    02:00 +6°C° 0.2 mm 9 mps 751 mmHg 83%
    03:00 +6°C° 0.2 mm 9 mps 751 mmHg 83%
    04:00 +5°C° 0.2 mm 9 mps 751 mmHg 84%
    05:00 +5°C° 0.2 mm 9 mps 751 mmHg 84%
    06:00 +5°C° 0.2 mm 8 mps 751 mmHg 85%
    07:00 +5°C° 0.2 mm 8 mps 751 mmHg 85%
    08:00 +5°C° 0.2 mm 8 mps 751 mmHg 86%
    09:00 +5°C° 0.2 mm 8 mps 752 mmHg 86%
    10:00 +6°C° 0.3 mm 8 mps 752 mmHg 84%
    11:00 +6°C° 0.3 mm 8 mps 752 mmHg 82%
    12:00 +7°C° 0.3 mm 8 mps 752 mmHg 80%
    13:00 +7°C° 0.3 mm 8 mps 752 mmHg 80%
    14:00 +7°C° 0.3 mm 8 mps 752 mmHg 81%
    15:00 +6°C° 0.3 mm 8 mps 752 mmHg 82%
    16:00 +6°C° 0 mm 8 mps 753 mmHg 83%
    17:00 +5°C° 0 mm 8 mps 753 mmHg 83%
    18:00 +5°C° 0 mm 8 mps 754 mmHg 84%
    19:00 +5°C° 0.1 mm 8 mps 754 mmHg 84%
    20:00 +5°C° 0.1 mm 8 mps 755 mmHg 84%
    21:00 +5°C° 0.1 mm 8 mps 755 mmHg 84%
    22:00 +5°C° 0.1 mm 8 mps 756 mmHg 84%
    23:00 +5°C° 0.1 mm 8 mps 756 mmHg 84%

    Day after tomorrow, 17 December, Monday

    Time Temperature Precipitation Wind Pressure Humidity
    00:00 +5°C° 0.1 mm 8 mps 757 mmHg 84%
    01:00 +5°C° 0 mm 8 mps 757 mmHg 85%
    02:00 +5°C° 0 mm 7 mps 757 mmHg 86%
    03:00 +5°C° 0 mm 7 mps 758 mmHg 86%
    04:00 +5°C° 0 mm 7 mps 758 mmHg 87%
    05:00 +5°C° 0 mm 7 mps 758 mmHg 87%
    06:00 +5°C° 0 mm 7 mps 758 mmHg 88%
    07:00 +5°C° 0 mm 7 mps 759 mmHg 88%
    08:00 +5°C° 0 mm 8 mps 759 mmHg 88%
    09:00 +6°C° 0 mm 8 mps 759 mmHg 87%
    10:00 +7°C° 0 mm 9 mps 759 mmHg 86%
    11:00 +8°C° 0 mm 9 mps 759 mmHg 84%
    12:00 +9°C° 0 mm 10 mps 759 mmHg 82%
    13:00 +9°C° 0 mm 11 mps 758 mmHg 83%
    14:00 +9°C° 0 mm 11 mps 758 mmHg 85%
    15:00 +9°C° 0 mm 12 mps 757 mmHg 86%
    16:00 +9°C° 0.1 mm 12 mps 757 mmHg 87%
    17:00 +9°C° 0.1 mm 12 mps 757 mmHg 88%
    18:00 +9°C° 0.1 mm 12 mps 757 mmHg 89%
    19:00 +9°C° 0.1 mm 13 mps 757 mmHg 89%
    20:00 +10°C° 0.1 mm 14 mps 757 mmHg 88%
    21:00 +10°C° 0.1 mm 14 mps 756 mmHg 88%
    22:00 +10°C° 0.1 mm 15 mps 756 mmHg 87%
    23:00 +10°C° 0.1 mm 15 mps 755 mmHg 87%

    18 December, Tuesday

    Time Temperature Precipitation Wind Pressure Humidity
    00:00 +9°C° 0.1 mm 16 mps 755 mmHg 87%
    01:00 +9°C° 0.1 mm 16 mps 754 mmHg 85%
    02:00 +9°C° 0.1 mm 17 mps 753 mmHg 83%
    03:00 +9°C° 0.1 mm 17 mps 752 mmHg 81%
    04:00 +9°C° 0.1 mm 17 mps 751 mmHg 78%
    05:00 +9°C° 0.1 mm 18 mps 750 mmHg 75%
    06:00 +9°C° 0.1 mm 18 mps 749 mmHg 73%
    07:00 +9°C° 1 mm 18 mps 748 mmHg 75%
    08:00 +9°C° 1 mm 18 mps 747 mmHg 78%
    09:00 +8°C° 1 mm 19 mps 747 mmHg 81%
    10:00 +9°C° 2.4 mm 18 mps 746 mmHg 82%
    11:00 +9°C° 2.4 mm 18 mps 746 mmHg 83%
    12:00 +7°C° 2.4 mm 18 mps 746 mmHg 84%
    13:00 +9°C° 2.1 mm 16 mps 745 mmHg 85%
    14:00 +9°C° 2.1 mm 15 mps 745 mmHg 86%
    15:00 +9°C° 2.1 mm 14 mps 744 mmHg 87%
    16:00 +8°C° 2 mm 12 mps 745 mmHg 88%
    17:00 +7°C° 2 mm 11 mps 745 mmHg 89%
    18:00 +6°C° 2 mm 9 mps 745 mmHg 90%
    19:00 +6°C° 0.2 mm 9 mps 746 mmHg 88%
    20:00 +6°C° 0.2 mm 8 mps 747 mmHg 86%
    21:00 +6°C° 0.2 mm 8 mps 748 mmHg 84%
    22:00 +6°C° 0.1 mm 8 mps 749 mmHg 85%
    23:00 +6°C° 0.1 mm 7 mps 750 mmHg 85%

    19 December, Wednesday

    Time Temperature Precipitation Wind Pressure Humidity
    00:00 +5°C° 0.1 mm 7 mps 751 mmHg 85%
    01:00 +5°C° 0.1 mm 7 mps 751 mmHg 85%
    02:00 +5°C° 0.1 mm 7 mps 751 mmHg 85%
    03:00 +5°C° 0.1 mm 7 mps 752 mmHg 84%
    04:00 +5°C° 0 mm 7 mps 752 mmHg 84%
    05:00 +5°C° 0 mm 7 mps 752 mmHg 84%
    06:00 +4°C° 0 mm 7 mps 753 mmHg 83%
    07:00 +4°C° 0 mm 7 mps 753 mmHg 83%
    08:00 +4°C° 0 mm 7 mps 753 mmHg 83%
    09:00 +4°C° 0 mm 7 mps 754 mmHg 83%
    10:00 +5°C° 0.1 mm 8 mps 754 mmHg 79%
    11:00 +6°C° 0.1 mm 8 mps 754 mmHg 76%
    12:00 +7°C° 0.1 mm 8 mps 755 mmHg 73%
    13:00 +7°C° 0.3 mm 8 mps 755 mmHg 75%
    14:00 +7°C° 0.3 mm 8 mps 755 mmHg 76%
    15:00 +6°C° 0.3 mm 8 mps 755 mmHg 78%
    16:00 +6°C° 0.1 mm 8 mps 755 mmHg 79%
    17:00 +5°C° 0.1 mm 8 mps 756 mmHg 81%
    18:00 +5°C° 0.1 mm 8 mps 756 mmHg 82%
    19:00 +5°C° 0.1 mm 8 mps 756 mmHg 83%
    20:00 +5°C° 0.1 mm 8 mps 757 mmHg 83%
    21:00 +5°C° 0.1 mm 8 mps 757 mmHg 84%
    22:00 +5°C° 0.2 mm 8 mps 757 mmHg 85%
    23:00 +5°C° 0.2 mm 8 mps 758 mmHg 86%

    20 December, Thursday

    Time Temperature Precipitation Wind Pressure Humidity
    00:00 +6°C° 0.2 mm 8 mps 758 mmHg 87%
    01:00 +6°C° 0.4 mm 9 mps 758 mmHg 87%
    02:00 +6°C° 0.4 mm 9 mps 758 mmHg 87%
    03:00 +6°C° 0.4 mm 9 mps 759 mmHg 87%
    04:00 +6°C° 0.4 mm 9 mps 759 mmHg 86%
    05:00 +6°C° 0.4 mm 9 mps 759 mmHg 86%
    06:00 +6°C° 0.4 mm 8 mps 760 mmHg 85%
    07:00 +6°C° 0.1 mm 8 mps 760 mmHg 86%
    08:00 +5°C° 0.1 mm 7 mps 761 mmHg 87%
    09:00 +5°C° 0.1 mm 7 mps 761 mmHg 88%
    10:00 +6°C° 0.1 mm 7 mps 762 mmHg 85%
    11:00 +8°C° 0.1 mm 7 mps 762 mmHg 82%
    12:00 +9°C° 0.1 mm 7 mps 762 mmHg 79%
    13:00 +9°C° 0.1 mm 7 mps 762 mmHg 80%
    14:00 +8°C° 0.1 mm 6 mps 763 mmHg 82%
    15:00 +8°C° 0.1 mm 6 mps 763 mmHg 83%
    16:00 +8°C° 0 mm 6 mps 763 mmHg 85%
    17:00 +7°C° 0 mm 5 mps 763 mmHg 87%
    18:00 +6°C° 0 mm 5 mps 764 mmHg 89%
    19:00 +6°C° 0 mm 5 mps 764 mmHg 89%
    20:00 +6°C° 0 mm 5 mps 764 mmHg 88%
    21:00 +6°C° 0 mm 5 mps 764 mmHg 88%
    22:00 +6°C° 0 mm 5 mps 764 mmHg 88%
    23:00 +5°C° 0 mm 6 mps 763 mmHg 88%
    Show more